Location: Deuil
(48.9767°N, 2.3272°E)
Time: 22:26:22
(UTC+00:00)

FENGYUN 1C DEB - Pass Details

Date: 26 August 2022
Orbit: 832 x 883 km, 99.6° (Epoch: 24 September)

Event Time Altitude Azimuth Distance (km) Brightness Sun altitude
Rises 19:23:07 0° 205° (SSW) 3,400 ? -6.6°
Reaches altitude 10° 19:26:06 10° 222° (SW) 2,479 ? -7.1°
Maximum altitude 19:30:06 20° 269° (W) 1,869 ? -7.7°
Drops below altitude 10° 19:34:10 10° 316° (NW) 2,517 ? -8.3°
Sets 19:37:14 0° 333° (NNW) 3,470 ? -8.7°
